Location: Newark
(50.0306°N, 2.3272°E)
Time: 01:03:56
(UTC+00:00)

A-11 Canister half - Pass Details

Date: 17 December 2019
Orbit: 1525 x 1684 km, 47.3° (Epoch: 27 January)

Event Time Altitude Azimuth Distance (km) Brightness Sun altitude
Rises 02:29:56 0° 193° (SSW) 4,858 - -48.6°
Reaches altitude 10° 02:33:47 10° 181° (S) 3,895 - -48.0°
Exits shadow 02:40:41 25° 137° (SE) 2,925 10.5 -47.0°
Maximum altitude 02:41:18 25° 132° (SE) 2,919 10.5 -46.9°
Drops below altitude 10° 02:48:54 10° 83° (E) 3,951 11.7 -45.7°
Sets 02:52:48 0° 71° (ENE) 4,942 12.4 -45.2°
